Terminal Aerodrome Forecast
Issued by NWS

Home | Current Version | Previous Version | Text Only | Print | Product List | Glossary On
Versions: 1 2 3 4 5 6 7 8 9 10 11 12 13 14 15 16 17 18 19 20 21 22 23 24 25 26 27 28 29 30 31 32 33
000
FTUS43 KDLH 242000 AAC
TAFHYR
TAF AMD
KHYR 242033Z 2421/2518 16010G20KT P6SM SCT025
      TEMPO 2422/2501 3SM TSRA BKN025CB
     FM250100 VRB03KT P6SM VCTS SCT020CB BKN050
      TEMPO 2501/2505 3SM TSRA OVC013CB
     FM251500 23007KT P6SM SCT025=

USA.gov is the U.S. government's official web portal to all federal, state and local government web resources and services.